Greenland, New Hampshire, United States (03840)
Lat: 43.04N, Lon: 70.83W
Wx Zone: NHZ014
Local Info
Past Weather Observations for Sunday, August 28, 2016

NOTE: This archive is for the closest National Weather Service station to Greenland. Information may differ from the station used for current weather conditions.

Click here for Long-term Archive

Time Weather Temperature Dewpoint Humidity Pressure Winds Precip Visibility
23:58
Partly Cloudy
70°F / 21°C 57°F / 14°C 64% 30.09 in
(1019 mb)
SW 9.2 mph
(SW 15 kph)
- 10SM
22:58
Partly Cloudy
70°F / 21°C 61°F / 16°C 73% 30.09 in
(1019 mb)
SSE 8.1 mph
(SSE 13 kph)
- 10SM
21:58
Partly Cloudy
68°F / 20°C 61°F / 16°C 78% 30.09 in
(1019 mb)
S 5.8 mph
(S 9 kph)
- 10SM
20:58
Partly Cloudy
68°F / 20°C 61°F / 16°C 78% 30.12 in
(1020 mb)
SSE 4.6 mph
(SSE 7 kph)
- 10SM
19:58
Partly Cloudy
68°F / 20°C 63°F / 17°C 83% 30.12 in
(1020 mb)
SSE 6.9 mph
(SSE 11 kph)
- 10SM
18:58
Partly Cloudy
70°F / 21°C 63°F / 17°C 78% 30.12 in
(1020 mb)
SSE 8.1 mph
(SSE 13 kph)
- 10SM
17:58
Partly Cloudy
72°F / 22°C 63°F / 17°C 73% 30.15 in
(1021 mb)
SSE 9.2 mph
(SSE 15 kph)
- 10SM
16:58
Partly Cloudy
73°F / 23°C 61°F / 16°C 65% 30.15 in
(1021 mb)
SSE 13.8 mph
(SSE 22 kph)
- 10SM
15:58
Partly Cloudy
75°F / 24°C 61°F / 16°C 61% 30.15 in
(1021 mb)
SE 19.6 mph
(SE 32 kph)
- 10SM
14:58
Partly Cloudy
79°F / 26°C 57°F / 14°C 48% 30.18 in
(1022 mb)
SSE 17.3 mph
(SSE 28 kph)
- 10SM
13:58
Partly Cloudy
79°F / 26°C 59°F / 15°C 51% 30.21 in
(1023 mb)
SE 13.8 mph
(SE 22 kph)
- 10SM
12:58
Partly Cloudy
79°F / 26°C 59°F / 15°C 51% 30.21 in
(1023 mb)
SE 13.8 mph
(SE 22 kph)
- 10SM
11:58
Partly Cloudy
79°F / 26°C 57°F / 14°C 48% 30.24 in
(1024 mb)
SE 11.5 mph
(SE 19 kph)
- 10SM
10:58
Mostly Cloudy
79°F / 26°C 57°F / 14°C 48% 30.24 in
(1024 mb)
SE 10.4 mph
(SE 17 kph)
- 10SM
09:58
Mostly Cloudy
79°F / 26°C 57°F / 14°C 48% 30.27 in
(1025 mb)
SSE 11.5 mph
(SSE 19 kph)
- 10SM
08:58
Mostly Cloudy
77°F / 25°C 59°F / 15°C 54% 30.27 in
(1025 mb)
SSE 5.8 mph
(SSE 9 kph)
- 10SM
07:58
Mostly Cloudy
73°F / 23°C 63°F / 17°C 69% 30.3 in
(1026 mb)
Variable 3.5 mph
(Variable 6 kph)
- 10SM
06:58
Partly Cloudy
68°F / 20°C 63°F / 17°C 83% 30.3 in
(1026 mb)
Variable 1.2 mph
(Variable 2 kph)
- 10SM
05:58
Mostly Cloudy
64°F / 18°C 61°F / 16°C 88% 30.27 in
(1025 mb)
Calm - 10SM
04:58
Mostly Cloudy
64°F / 18°C 61°F / 16°C 88% 30.27 in
(1025 mb)
Calm - 10SM
03:58
Mostly Cloudy
63°F / 17°C 61°F / 16°C 94% 30.24 in
(1024 mb)
NE 2.3 mph
(NE 4 kph)
- 10SM
02:58
Mostly Cloudy
63°F / 17°C 61°F / 16°C 94% 30.24 in
(1024 mb)
NNW 1.2 mph
(NNW 2 kph)
- 10SM
01:58
Partly Cloudy
64°F / 18°C 61°F / 16°C 88% 30.24 in
(1024 mb)
E 2.3 mph
(E 4 kph)
- 10SM
00:58
Partly Cloudy
64°F / 18°C 61°F / 16°C 88% 30.24 in
(1024 mb)
E 4.6 mph
(E 7 kph)
- 10SM
Time Weather Temperature Dewpoint Humidity Pressure Winds Precip Visibility


Weather for websites

WeatherForYou.com, LLC is not responsible for any damages or problems caused by this service. Current weather conditions are obtained from the closest station including government and personal stations which may have varying degrees of accuracy. Weather forecasts are derived from the NOAA NDFD. Like all things, this site belongs to Jesus Christ... He just trusts us to maintain it. If you have any questions or comments email webmaster@weatherforyou.com

Copyright © 2016, WeatherForYou.com LLC. All rights reserved.